Vancouver, WA

1:10 AM PST on December 10, 2016 (GMT -0800)
Pearson

Weather History for KVUO - August, 2014

Change the Weather History Date:

Sunday, August 3, 2014

  Actual Average Record
Temperature  
Mean Temperature 75 °F 70 °F  
Max Temperature 90 °F 82 °F 100 °F (1952)
Min Temperature 60 °F 58 °F 44 °F (1969)
Degree Days  
Heating Degree Days 0    
Month to date heating degree days 0  
Since 1 July heating degree days 3  
Cooling Degree Days 10    
Month to date cooling degree days 32  
Year to date cooling degree days 264  
Growing Degree Days 26 (Base 50)    
Moisture  
Dew Point 57 °F    
Average Humidity 61    
Maximum Humidity 84    
Minimum Humidity 37    
Precipitation  
Precipitation 0.00 in 0.01 in 0.75 in (1962)
Month to date precipitation T 0.03  
Year to date precipitation 22.25 21.09  
Sea Level Pressure  
Sea Level Pressure 29.96 in    
Wind  
Wind Speed 6 mph (NW)    
Max Wind Speed 14 mph    
Max Gust Speed 22 mph    
Visibility 10 miles    
Events      
T = Trace of Precipitation, MM = Missing Value Source: NWS Daily Summary

Daily Weather History Graph

Daily Weather History Graph

Search for Another Location

Airport or City:

Trip Planner

Search our weather history database for the weather conditions in past years. The results will help you decide how hot, cold, wet, or windy it might be!

Date:

Astronomy

Aug. 03, 2014 Rise Set
Actual Time 5:56 AM PDT 8:36 PM PDT
Civil Twilight 5:22 AM PDT 9:09 PM PDT
Nautical Twilight 4:39 AM PDT 9:52 PM PDT
Astronomical Twilight 3:50 AM PDT 10:41 PM PDT
Moon 1:47 PM PDT (8/3) No Moon Set
Length of Visible Light 15h 47m
Length of Day
14h 39m
Waxing Crescent, 48% of the Moon is Illuminated
Aug 3
Waxing Crescent
Aug 3
First Quarter
Aug 10
Full
Aug 17
Last Quarter
Aug 25
New

Hourly Weather History & Observations

Time (PDT) Temp. Heat Index Dew Point Humidity Pressure Visibility Wind Dir Wind Speed Gust Speed Precip Events Conditions
1:53 AM 64.9 °F - 55.0 °F 70% 30.01 in 10.0 mi Calm Calm - N/A   Clear
2:53 AM 63.0 °F - 55.0 °F 75% 30.02 in 10.0 mi Variable 3.5 mph - N/A   Clear
3:53 AM 62.1 °F - 55.0 °F 78% 30.03 in 10.0 mi Variable 3.5 mph - N/A   Clear
4:53 AM 61.0 °F - 55.0 °F 81% 30.03 in 10.0 mi Variable 4.6 mph - N/A   Clear
5:53 AM 61.0 °F - 55.0 °F 81% 30.03 in 10.0 mi North 4.6 mph - N/A   Clear
6:53 AM 61.0 °F - 55.0 °F 81% 30.04 in 10.0 mi NNW 3.5 mph - N/A   Clear
7:53 AM 63.0 °F - 55.9 °F 78% 30.04 in 10.0 mi NW 5.8 mph - N/A   Clear
8:53 AM 64.9 °F - 55.9 °F 73% 30.04 in 10.0 mi Variable 4.6 mph - N/A   Clear
9:53 AM 68.0 °F - 57.0 °F 68% 30.03 in 10.0 mi WNW 3.5 mph - N/A   Clear
10:53 AM 72.0 °F - 57.9 °F 61% 30.01 in 10.0 mi WNW 5.8 mph - N/A   Clear
11:53 AM 75.9 °F - 59.0 °F 56% 29.99 in 10.0 mi Variable 6.9 mph - N/A   Clear
12:53 PM 79.0 °F - 57.9 °F 48% 29.97 in 10.0 mi WNW 11.5 mph - N/A   Clear
1:53 PM 82.0 °F 82.1 °F 59.0 °F 45% 29.94 in 10.0 mi WNW 6.9 mph - N/A   Clear
2:53 PM 86.0 °F 85.7 °F 60.1 °F 41% 29.91 in 10.0 mi NNW 6.9 mph - N/A   Clear
3:53 PM 87.1 °F 86.7 °F 60.1 °F 40% 29.89 in 10.0 mi Variable 5.8 mph - N/A   Clear
4:53 PM 90.0 °F 89.7 °F 60.1 °F 37% 29.87 in 10.0 mi WNW 12.7 mph 18.4 mph N/A   Clear
5:53 PM 90.0 °F 89.1 °F 59.0 °F 35% 29.86 in 10.0 mi NW 13.8 mph 20.7 mph N/A   Clear
7:53 PM 86.0 °F 85.4 °F 59.0 °F 40% 29.86 in 10.0 mi NW 6.9 mph - N/A   Clear
8:53 PM 82.9 °F 82.6 °F 57.9 °F 42% 29.88 in 10.0 mi NW 9.2 mph - N/A   Clear
10:53 PM 79.0 °F - 59.0 °F 50% 29.90 in 10.0 mi NNW 6.9 mph - N/A   Clear
11:53 PM 77.0 °F - 59.0 °F 54% 29.91 in 10.0 mi NW 4.6 mph - N/A   Clear